GIA717 YMML-WIII

Flight info

Callsign GIA717
Flight time 6h 25m
Altitude 34000
Route PEDNI1 PEDNI H345 AD A585 PINAV/N0484F360 A585 DOMOM/N0489F380 A585 IPKON
Aircraft MD11/H-SDE1E2E3FGHIJ2J3J4J5M1RWXY/LB1D1

Departure

Time 2026-05-06 17:15
Airport Melbourne Airport (YMML)

Arrival

Time 2026-05-06 23:40
Airport Soekarno-Hatta International Airport (WIII)
Time Latitude Longitude Altitude Speed Heading
2026-05-06 16:38 -37.66932 144.84587 400 ft 0 kts 360°
2026-05-06 17:01 -37.66952 144.84587 398 ft 2 kts 360°
2026-05-06 17:01 -37.66972 144.84583 397 ft 4 kts 31°
2026-05-06 17:01 -37.66994 144.84568 396 ft 4 kts
2026-05-06 17:02 -37.67010 144.84573 395 ft 4 kts 281°
2026-05-06 17:02 -37.67009 144.84605 395 ft 4 kts 261°
2026-05-06 17:02 -37.67007 144.84621 393 ft 1 kts 261°
2026-05-06 17:03 -37.67007 144.84620 393 ft 0 kts 261°
2026-05-06 17:06 -37.67007 144.84621 398 ft 0 kts 261°
2026-05-06 17:08 -37.67009 144.84603 396 ft 5 kts 261°
2026-05-06 17:08 -37.67014 144.84548 397 ft 8 kts 265°
2026-05-06 17:08 -37.67022 144.84476 394 ft 8 kts 252°
2026-05-06 17:09 -37.67044 144.84409 392 ft 9 kts 252°
2026-05-06 17:09 -37.67056 144.84328 393 ft 9 kts 262°
2026-05-06 17:09 -37.67090 144.84262 392 ft 9 kts 208°
2026-05-06 17:09 -37.67167 144.84263 390 ft 14 kts 171°
2026-05-06 17:10 -37.67279 144.84284 388 ft 19 kts 171°
2026-05-06 17:10 -37.67412 144.84309 385 ft 20 kts 171°
2026-05-06 17:10 -37.67549 144.84334 381 ft 20 kts 171°
2026-05-06 17:10 -37.67690 144.84360 377 ft 21 kts 172°
2026-05-06 17:11 -37.67840 144.84387 372 ft 23 kts 172°
2026-05-06 17:11 -37.68005 144.84418 365 ft 26 kts 172°
2026-05-06 17:11 -37.68191 144.84456 363 ft 27 kts 171°
2026-05-06 17:11 -37.68376 144.84462 357 ft 27 kts 203°
2026-05-06 17:12 -37.68507 144.84326 355 ft 13 kts 221°
2026-05-06 17:12 -37.68553 144.84244 352 ft 10 kts 256°
2026-05-06 17:12 -37.68562 144.84169 357 ft 7 kts 262°
2026-05-06 17:12 -37.68565 144.84124 354 ft 3 kts 269°
2026-05-06 17:13 -37.68555 144.84103 359 ft 3 kts 318°
2026-05-06 17:13 -37.68527 144.84092 355 ft 4 kts 349°
2026-05-06 17:13 -37.68525 144.84092 355 ft 0 kts 349°
2026-05-06 17:14 -37.68523 144.84091 354 ft 3 kts 349°
2026-05-06 17:14 -37.68383 144.84062 359 ft 56 kts 352°
2026-05-06 17:14 -37.67716 144.83935 370 ft 135 kts 352°
2026-05-06 17:14 -37.66580 144.83747 477 ft 183 kts 349°
2026-05-06 17:15 -37.65330 144.83597 1341 ft 179 kts 349°
2026-05-06 17:15 -37.64108 144.83349 2250 ft 183 kts 345°
2026-05-06 17:15 -37.62807 144.83040 3071 ft 192 kts 346°
2026-05-06 17:15 -37.61466 144.82746 3870 ft 202 kts 347°
2026-05-06 17:16 -37.59961 144.82425 4116 ft 237 kts 348°
2026-05-06 17:16 -37.58267 144.82013 4479 ft 259 kts 340°
2026-05-06 17:16 -37.56673 144.81027 5469 ft 256 kts 317°
2026-05-06 17:16 -37.55578 144.79314 6484 ft 255 kts 295°
2026-05-06 17:17 -37.54917 144.77217 7298 ft 261 kts 285°
2026-05-06 17:17 -37.54396 144.74995 8121 ft 269 kts 284°
2026-05-06 17:17 -37.53901 144.72675 8927 ft 276 kts 283°
2026-05-06 17:17 -37.53418 144.70383 10057 ft 272 kts 284°
2026-05-06 17:18 -37.52887 144.67965 10305 ft 301 kts 284°
2026-05-06 17:18 -37.52291 144.65298 10465 ft 331 kts 284°
2026-05-06 17:18 -37.51644 144.62432 11022 ft 344 kts 285°
2026-05-06 17:18 -37.50980 144.59516 11855 ft 349 kts 285°
2026-05-06 17:19 -37.50305 144.56560 12700 ft 354 kts 285°
2026-05-06 17:19 -37.49619 144.53561 13528 ft 359 kts 285°
2026-05-06 17:19 -37.48924 144.50524 14291 ft 363 kts 285°
2026-05-06 17:19 -37.48228 144.47490 14993 ft 367 kts 285°
2026-05-06 17:20 -37.47515 144.44387 15702 ft 370 kts 285°
2026-05-06 17:20 -37.46795 144.41255 16404 ft 374 kts 285°
2026-05-06 17:20 -37.46067 144.38091 17095 ft 377 kts 285°
2026-05-06 17:20 -37.45332 144.34904 17758 ft 381 kts 285°
2026-05-06 17:21 -37.44589 144.31680 18418 ft 385 kts 285°
2026-05-06 17:21 -37.43839 144.28437 18999 ft 388 kts 285°
2026-05-06 17:21 -37.43082 144.25165 19536 ft 391 kts 285°
2026-05-06 17:21 -37.42318 144.21867 20058 ft 395 kts 285°
2026-05-06 17:22 -37.41544 144.18531 20585 ft 398 kts 285°
2026-05-06 17:22 -37.40773 144.15218 21116 ft 401 kts 285°
2026-05-06 17:22 -37.39986 144.11832 21655 ft 404 kts 285°
2026-05-06 17:22 -37.39192 144.08426 22189 ft 408 kts 285°
2026-05-06 17:23 -37.38390 144.04990 22743 ft 411 kts 285°
2026-05-06 17:23 -37.37582 144.01532 23312 ft 415 kts 285°
2026-05-06 17:23 -37.36763 143.98034 23850 ft 418 kts 285°
2026-05-06 17:23 -37.35937 143.94510 24334 ft 421 kts 285°
2026-05-06 17:24 -37.35106 143.90969 24845 ft 424 kts 285°
2026-05-06 17:24 -37.34267 143.87404 25376 ft 426 kts 285°
2026-05-06 17:24 -37.33424 143.83825 25906 ft 429 kts 285°
2026-05-06 17:24 -37.32573 143.80218 26412 ft 432 kts 285°
2026-05-06 17:25 -37.31707 143.76594 26917 ft 435 kts 285°
2026-05-06 17:25 -37.30827 143.72942 27435 ft 438 kts 285°
2026-05-06 17:25 -37.29945 143.69272 27906 ft 441 kts 285°
2026-05-06 17:25 -37.29060 143.65575 28419 ft 443 kts 284°
2026-05-06 17:26 -37.28170 143.61846 28890 ft 446 kts 284°
2026-05-06 17:26 -37.27275 143.58096 29377 ft 449 kts 284°
2026-05-06 17:26 -37.26376 143.54324 29841 ft 452 kts 284°
2026-05-06 17:26 -37.25482 143.50582 30266 ft 455 kts 284°
2026-05-06 17:27 -37.24559 143.46719 30641 ft 457 kts 284°
2026-05-06 17:27 -37.23651 143.42930 31008 ft 459 kts 284°
2026-05-06 17:27 -37.22732 143.39100 31437 ft 458 kts 284°
2026-05-06 17:27 -37.21781 143.35295 31917 ft 457 kts 285°
2026-05-06 17:28 -37.20724 143.31538 32386 ft 455 kts 287°
2026-05-06 17:28 -37.19614 143.27824 32879 ft 453 kts 288°
2026-05-06 17:28 -37.18489 143.24145 33352 ft 451 kts 288°
2026-05-06 17:28 -37.17366 143.20481 33783 ft 448 kts 288°
2026-05-06 17:29 -37.16255 143.16846 34228 ft 446 kts 288°
2026-05-06 17:29 -37.15151 143.13217 34585 ft 444 kts 287°
2026-05-06 17:29 -37.14054 143.09601 34885 ft 444 kts 287°
2026-05-06 17:29 -37.12962 143.05998 35171 ft 443 kts 288°
2026-05-06 17:30 -37.11866 143.02381 35445 ft 442 kts 288°
2026-05-06 17:30 -37.10772 142.98775 35749 ft 442 kts 287°
2026-05-06 17:30 -37.09694 142.95225 36012 ft 441 kts 288°
2026-05-06 17:30 -37.08601 142.91632 36186 ft 442 kts 288°
2026-05-06 17:31 -37.07503 142.88029 36240 ft 442 kts 288°
2026-05-06 17:31 -37.05303 142.80820 36235 ft 443 kts 288°
2026-05-06 17:32 -37.03093 142.73599 36250 ft 444 kts 288°
2026-05-06 17:32 -37.00876 142.66377 36258 ft 444 kts 288°
2026-05-06 17:33 -36.98671 142.59209 36254 ft 444 kts 288°
2026-05-06 17:33 -36.96446 142.51992 36243 ft 444 kts 287°
2026-05-06 17:34 -36.94214 142.44776 36259 ft 445 kts 287°
2026-05-06 17:34 -36.91973 142.37563 36260 ft 445 kts 288°
2026-05-06 17:35 -36.89720 142.30410 36263 ft 445 kts 288°
2026-05-06 17:35 -36.87457 142.23196 36265 ft 446 kts 287°
2026-05-06 17:36 -36.84066 142.12357 36272 ft 447 kts 287°
2026-05-06 17:36 -36.81799 142.05127 36275 ft 447 kts 287°
2026-05-06 17:37 -36.79527 141.97899 36277 ft 447 kts 287°
2026-05-06 17:37 -36.77250 141.90672 36279 ft 448 kts 287°
2026-05-06 17:38 -36.74979 141.83484 36286 ft 448 kts 287°
2026-05-06 17:38 -36.72689 141.76255 36286 ft 448 kts 287°
2026-05-06 17:39 -36.70393 141.69024 36292 ft 449 kts 287°
2026-05-06 17:39 -36.68087 141.61782 36288 ft 449 kts 287°
2026-05-06 17:40 -36.65778 141.54545 36292 ft 450 kts 287°
2026-05-06 17:40 -36.63457 141.47289 36293 ft 451 kts 287°
2026-05-06 17:41 -36.61138 141.40089 36301 ft 452 kts 287°
2026-05-06 17:41 -36.58775 141.32834 36448 ft 453 kts 285°
2026-05-06 17:42 -36.57591 141.29187 36328 ft 455 kts 284°
2026-05-06 17:42 -36.56405 141.25521 36308 ft 457 kts 284°
2026-05-06 17:42 -36.54030 141.18174 36300 ft 458 kts 284°
2026-05-06 17:43 -36.51646 141.10814 36305 ft 459 kts 284°
2026-05-06 17:43 -36.49250 141.03438 36309 ft 460 kts 284°
2026-05-06 17:44 -36.46851 140.96069 36309 ft 461 kts 284°
2026-05-06 17:44 -36.44848 140.89932 36310 ft 461 kts 284°
2026-05-06 17:45 -36.42038 140.81345 36313 ft 462 kts 285°
2026-05-06 17:45 -36.39245 140.74107 36317 ft 473 kts 296°
2026-05-06 17:46 -36.35942 140.68547 36321 ft 480 kts 301°
2026-05-06 17:46 -36.31729 140.62150 36319 ft 481 kts 302°
2026-05-06 17:47 -36.27541 140.55694 36320 ft 480 kts 301°
2026-05-06 17:47 -36.23407 140.49186 36323 ft 480 kts 301°
2026-05-06 17:48 -36.19288 140.42671 36320 ft 480 kts 301°
2026-05-06 17:48 -36.15165 140.36163 36332 ft 481 kts 301°
2026-05-06 17:49 -36.11025 140.29645 36326 ft 481 kts 301°
2026-05-06 17:49 -36.06904 140.23191 36329 ft 481 kts 302°
2026-05-06 17:50 -36.02742 140.16719 36327 ft 481 kts 302°
2026-05-06 17:50 -35.98585 140.10257 36329 ft 480 kts 302°
2026-05-06 17:51 -35.94430 140.03796 36328 ft 480 kts 302°
2026-05-06 17:51 -35.90273 139.97344 36333 ft 480 kts 302°
2026-05-06 17:52 -35.86109 139.90893 36333 ft 480 kts 302°
2026-05-06 17:52 -35.81936 139.84441 36334 ft 480 kts 302°
2026-05-06 17:53 -35.77772 139.78015 36337 ft 480 kts 302°
2026-05-06 17:53 -35.73626 139.71628 36336 ft 480 kts 302°
2026-05-06 17:54 -35.69866 139.65846 36339 ft 479 kts 303°
2026-05-06 17:54 -35.65697 139.59448 36348 ft 479 kts 303°
2026-05-06 17:55 -35.61523 139.53051 36345 ft 479 kts 303°
2026-05-06 17:55 -35.57353 139.46674 36342 ft 478 kts 303°
2026-05-06 17:56 -35.53163 139.40318 36346 ft 478 kts 303°
2026-05-06 17:56 -35.48982 139.33979 36349 ft 478 kts 303°
2026-05-06 17:57 -35.44829 139.27671 36348 ft 477 kts 303°
2026-05-06 17:57 -35.40661 139.21341 36349 ft 477 kts 303°
2026-05-06 17:58 -35.36496 139.15013 36356 ft 477 kts 303°
2026-05-06 17:58 -35.32334 139.08690 36354 ft 476 kts 303°
2026-05-06 17:59 -35.28166 139.02369 36356 ft 476 kts 304°
2026-05-06 17:59 -35.24006 138.96071 36361 ft 476 kts 304°
2026-05-06 18:00 -35.19848 138.89788 36360 ft 475 kts 304°
2026-05-06 18:00 -35.15706 138.83542 36365 ft 475 kts 304°
2026-05-06 18:01 -35.11548 138.77282 36367 ft 474 kts 304°
2026-05-06 18:01 -35.07387 138.71028 36372 ft 474 kts 304°
2026-05-06 18:02 -35.03226 138.64785 36373 ft 474 kts 304°
2026-05-06 18:02 -34.99058 138.58543 36368 ft 474 kts 304°
2026-05-06 18:03 -34.94893 138.52318 36369 ft 473 kts 304°
2026-05-06 18:03 -34.90932 138.45940 36372 ft 470 kts 300°
2026-05-06 18:04 -34.87321 138.39378 36363 ft 468 kts 299°
2026-05-06 18:04 -34.83739 138.32762 36365 ft 468 kts 299°
2026-05-06 18:05 -34.80134 138.26170 36365 ft 468 kts 299°
2026-05-06 18:05 -34.76508 138.19587 36381 ft 468 kts 300°
2026-05-06 18:06 -34.72873 138.13007 36375 ft 468 kts 300°
2026-05-06 18:06 -34.69237 138.06436 36378 ft 468 kts 300°
2026-05-06 18:07 -34.65601 137.99875 36374 ft 468 kts 300°
2026-05-06 18:07 -34.61957 137.93313 36383 ft 468 kts 300°
2026-05-06 18:08 -34.58309 137.86757 36386 ft 468 kts 300°
2026-05-06 18:08 -34.54638 137.80224 36387 ft 469 kts 300°
2026-05-06 18:09 -34.50984 137.73737 36389 ft 469 kts 300°
2026-05-06 18:09 -34.47305 137.67198 36395 ft 469 kts 300°
2026-05-06 18:10 -34.43628 137.60665 36398 ft 469 kts 300°
2026-05-06 18:10 -34.39943 137.54131 36398 ft 470 kts 300°
2026-05-06 18:11 -34.36249 137.47592 36395 ft 470 kts 300°
2026-05-06 18:11 -34.32551 137.41059 36399 ft 470 kts 301°
2026-05-06 18:12 -34.28847 137.34526 36403 ft 471 kts 301°
2026-05-06 18:12 -34.25159 137.28035 36402 ft 471 kts 301°
2026-05-06 18:13 -34.21451 137.21521 36399 ft 471 kts 301°
2026-05-06 18:13 -34.17730 137.14995 36397 ft 471 kts 301°
2026-05-06 18:14 -34.14002 137.08469 36405 ft 471 kts 301°
2026-05-06 18:14 -34.10274 137.01963 36401 ft 471 kts 301°
2026-05-06 18:15 -34.06525 136.95472 36397 ft 471 kts 301°
2026-05-06 18:15 -34.02781 136.88978 36414 ft 471 kts 301°
2026-05-06 18:16 -33.99069 136.82530 36411 ft 471 kts 301°
2026-05-06 18:16 -33.95330 136.76042 36414 ft 471 kts 301°
2026-05-06 18:17 -33.91586 136.69558 36410 ft 471 kts 301°
2026-05-06 18:17 -33.87843 136.63087 36410 ft 471 kts 302°
2026-05-06 18:18 -33.84088 136.56607 36414 ft 471 kts 302°
2026-05-06 18:18 -33.80331 136.50135 36411 ft 471 kts 302°
2026-05-06 18:19 -33.76596 136.43713 36411 ft 471 kts 302°
2026-05-06 18:19 -33.72842 136.37270 36416 ft 471 kts 302°
2026-05-06 18:20 -33.69078 136.30821 36412 ft 471 kts 302°
2026-05-06 18:20 -33.65317 136.24388 36419 ft 470 kts 302°
2026-05-06 18:21 -33.61550 136.17978 36423 ft 470 kts 302°
2026-05-06 18:21 -33.57772 136.11583 36421 ft 469 kts 302°
2026-05-06 18:22 -33.54036 136.05243 36423 ft 468 kts 302°
2026-05-06 18:22 -33.50273 135.98854 36422 ft 468 kts 302°
2026-05-06 18:23 -33.46519 135.92488 36426 ft 467 kts 303°
2026-05-06 18:23 -33.42761 135.86126 36427 ft 467 kts 303°
2026-05-06 18:24 -33.39040 135.79816 36426 ft 467 kts 303°
2026-05-06 18:24 -33.35296 135.73460 36428 ft 467 kts 303°
2026-05-06 18:25 -33.31553 135.67112 36426 ft 466 kts 303°
2026-05-06 18:25 -33.27811 135.60778 36430 ft 466 kts 303°
2026-05-06 18:26 -33.24061 135.54441 36426 ft 466 kts 303°
2026-05-06 18:26 -33.20316 135.48123 36428 ft 466 kts 303°
2026-05-06 18:27 -33.16572 135.41820 36433 ft 465 kts 303°
2026-05-06 18:27 -33.12851 135.35564 36434 ft 465 kts 303°
2026-05-06 18:28 -33.09107 135.29281 36432 ft 464 kts 303°
2026-05-06 18:28 -33.05361 135.23004 36435 ft 464 kts 303°
2026-05-06 18:29 -33.01614 135.16738 36432 ft 464 kts 303°
2026-05-06 18:29 -32.97849 135.10497 36432 ft 464 kts 303°
2026-05-06 18:30 -32.94060 135.04282 36434 ft 463 kts 303°
2026-05-06 18:30 -32.90280 134.98076 36434 ft 463 kts 303°
2026-05-06 18:31 -32.86500 134.91866 36434 ft 463 kts 303°
2026-05-06 18:31 -32.82749 134.85709 36436 ft 462 kts 303°
2026-05-06 18:32 -32.78973 134.79522 36435 ft 462 kts 303°
2026-05-06 18:32 -32.75195 134.73343 36436 ft 462 kts 303°
2026-05-06 18:33 -32.71417 134.67175 36437 ft 462 kts 303°
2026-05-06 18:33 -32.68269 134.62041 36434 ft 461 kts 303°
2026-05-06 18:34 -32.63870 134.54881 36435 ft 461 kts 303°
2026-05-06 18:34 -32.60092 134.48743 36432 ft 461 kts 304°
2026-05-06 18:35 -32.56921 134.43599 36432 ft 461 kts 304°
2026-05-06 18:35 -32.53157 134.37501 36435 ft 461 kts 304°
2026-05-06 18:36 -32.49367 134.31391 36436 ft 460 kts 304°
2026-05-06 18:36 -32.45563 134.25287 36436 ft 460 kts 304°
2026-05-06 18:37 -32.41773 134.19192 36429 ft 460 kts 304°
2026-05-06 18:37 -32.37978 134.13087 36433 ft 460 kts 304°
2026-05-06 18:38 -32.34193 134.07004 36433 ft 459 kts 304°
2026-05-06 18:38 -32.30403 134.00924 36433 ft 459 kts 304°
2026-05-06 18:39 -32.26614 133.94855 36437 ft 459 kts 304°
2026-05-06 18:40 -32.20945 133.85794 36433 ft 458 kts 304°
2026-05-06 18:40 -32.17152 133.79744 36436 ft 458 kts 304°
2026-05-06 18:41 -32.13353 133.73697 36434 ft 458 kts 304°
2026-05-06 18:41 -32.09501 133.67701 36431 ft 459 kts 305°
2026-05-06 18:42 -32.05626 133.61723 36435 ft 458 kts 305°
2026-05-06 18:42 -32.01753 133.55744 36432 ft 458 kts 305°
2026-05-06 18:43 -31.97908 133.49806 36433 ft 458 kts 305°
2026-05-06 18:43 -31.94038 133.43838 36431 ft 458 kts 305°
2026-05-06 18:44 -31.90163 133.37870 36433 ft 458 kts 305°
2026-05-06 18:44 -31.86289 133.31914 36433 ft 458 kts 305°
2026-05-06 18:45 -31.82412 133.25963 36433 ft 458 kts 305°
2026-05-06 18:45 -31.78534 133.20019 36433 ft 458 kts 305°
2026-05-06 18:46 -31.74649 133.14074 36432 ft 458 kts 305°
2026-05-06 18:46 -31.70788 133.08175 36432 ft 458 kts 305°
2026-05-06 18:47 -31.66899 133.02242 36432 ft 458 kts 305°
2026-05-06 18:47 -31.63005 132.96312 36434 ft 458 kts 305°
2026-05-06 18:48 -31.59098 132.90405 36434 ft 458 kts 306°
2026-05-06 18:48 -31.55192 132.84499 36432 ft 458 kts 306°
2026-05-06 18:49 -31.51285 132.78582 36432 ft 459 kts 306°
2026-05-06 18:49 -31.47377 132.72666 36433 ft 459 kts 306°
2026-05-06 18:50 -31.43488 132.66787 36431 ft 459 kts 306°
2026-05-06 18:50 -31.39574 132.60880 36436 ft 459 kts 306°
2026-05-06 18:51 -31.35656 132.54976 36432 ft 459 kts 306°
2026-05-06 18:51 -31.31740 132.49084 36429 ft 459 kts 306°
2026-05-06 18:52 -31.27818 132.43193 36437 ft 459 kts 306°
2026-05-06 18:52 -31.23891 132.37302 36446 ft 459 kts 306°
2026-05-06 18:53 -31.19960 132.31414 36434 ft 460 kts 306°
2026-05-06 18:53 -31.16052 132.25570 36435 ft 460 kts 306°
2026-05-06 18:54 -31.12108 132.19682 36421 ft 460 kts 306°
2026-05-06 18:54 -31.08152 132.13815 36438 ft 460 kts 306°
2026-05-06 18:55 -31.04195 132.07951 36431 ft 460 kts 306°
2026-05-06 18:55 -31.00241 132.02080 36435 ft 460 kts 306°
2026-05-06 18:56 -30.96279 131.96201 36436 ft 461 kts 306°
2026-05-06 18:56 -30.92320 131.90332 36431 ft 461 kts 306°
2026-05-06 18:57 -30.88353 131.84462 36422 ft 461 kts 306°
2026-05-06 18:57 -30.84372 131.78594 36431 ft 461 kts 306°
2026-05-06 18:58 -30.80409 131.72778 36423 ft 461 kts 306°
2026-05-06 18:58 -30.76421 131.66926 36425 ft 462 kts 306°
2026-05-06 18:59 -30.72431 131.61073 36422 ft 462 kts 306°
2026-05-06 18:59 -30.68433 131.55216 36430 ft 462 kts 307°
2026-05-06 19:00 -30.64429 131.49360 36427 ft 462 kts 307°
2026-05-06 19:00 -30.60430 131.43520 36431 ft 463 kts 307°
2026-05-06 19:01 -30.56418 131.37669 36426 ft 463 kts 307°
2026-05-06 19:01 -30.52430 131.31862 36424 ft 463 kts 307°
2026-05-06 19:02 -30.48409 131.26016 36428 ft 463 kts 307°
2026-05-06 19:02 -30.44387 131.20177 36431 ft 463 kts 307°
2026-05-06 19:03 -30.40363 131.14343 36434 ft 463 kts 307°
2026-05-06 19:03 -30.36335 131.08512 36430 ft 463 kts 307°
2026-05-06 19:04 -30.32295 131.02691 36427 ft 464 kts 307°
2026-05-06 19:04 -30.28247 130.96879 36429 ft 463 kts 307°
2026-05-06 19:05 -30.24206 130.91067 36431 ft 463 kts 307°
2026-05-06 19:05 -30.20162 130.85247 36429 ft 463 kts 307°
2026-05-06 19:06 -30.16124 130.79443 36430 ft 463 kts 307°
2026-05-06 19:06 -30.12108 130.73681 36431 ft 463 kts 307°
2026-05-06 19:07 -30.08060 130.67881 36430 ft 463 kts 307°
2026-05-06 19:07 -30.04010 130.62087 36430 ft 464 kts 307°
2026-05-06 19:08 -29.99951 130.56288 36431 ft 464 kts 307°
2026-05-06 19:08 -29.95918 130.50535 36433 ft 464 kts 307°
2026-05-06 19:09 -29.91854 130.44746 36431 ft 464 kts 307°
2026-05-06 19:09 -29.87788 130.38961 36432 ft 464 kts 307°
2026-05-06 19:10 -29.83719 130.33182 36433 ft 464 kts 307°
2026-05-06 19:10 -29.79663 130.27449 36430 ft 464 kts 307°
2026-05-06 19:11 -29.75578 130.21692 36432 ft 464 kts 307°
2026-05-06 19:11 -29.71503 130.15938 36432 ft 464 kts 307°
2026-05-06 19:12 -29.67421 130.10173 36433 ft 464 kts 307°
2026-05-06 19:12 -29.63341 130.04418 36437 ft 464 kts 307°
2026-05-06 19:13 -29.59256 129.98664 36435 ft 464 kts 307°
2026-05-06 19:13 -29.55168 129.92916 36434 ft 464 kts 307°
2026-05-06 19:14 -29.51072 129.87164 36434 ft 464 kts 307°
2026-05-06 19:14 -29.47006 129.81462 36437 ft 464 kts 307°
2026-05-06 19:15 -29.42911 129.75728 36433 ft 464 kts 307°
2026-05-06 19:15 -29.38811 129.69995 36428 ft 464 kts 307°
2026-05-06 19:16 -29.34710 129.64268 36431 ft 465 kts 307°
2026-05-06 19:16 -29.30609 129.58550 36435 ft 465 kts 307°
2026-05-06 19:17 -29.26487 129.52834 36428 ft 465 kts 308°
2026-05-06 19:17 -29.22367 129.47130 36435 ft 465 kts 307°
2026-05-06 19:18 -29.18245 129.41414 36440 ft 465 kts 307°
2026-05-06 19:18 -29.14130 129.35707 36426 ft 465 kts 307°
2026-05-06 19:19 -29.10035 129.30038 36427 ft 465 kts 307°
2026-05-06 19:19 -29.05916 129.24341 36436 ft 465 kts 307°
2026-05-06 19:20 -29.01787 129.18640 36437 ft 465 kts 307°
2026-05-06 19:20 -28.97656 129.12944 36428 ft 465 kts 307°
2026-05-06 19:21 -28.93529 129.07260 36435 ft 465 kts 308°
2026-05-06 19:21 -28.90096 129.02539 36434 ft 465 kts 307°
2026-05-06 19:22 -28.85952 128.96859 36427 ft 465 kts 308°
2026-05-06 19:22 -28.81142 128.90271 36421 ft 465 kts 308°
2026-05-06 19:23 -28.77701 128.85553 36422 ft 465 kts 308°
2026-05-06 19:23 -28.73569 128.79890 36436 ft 465 kts 308°
2026-05-06 19:24 -28.69427 128.74220 36417 ft 465 kts 308°
2026-05-06 19:24 -28.65278 128.68551 36433 ft 465 kts 308°
2026-05-06 19:25 -28.61137 128.62899 36423 ft 465 kts 308°
2026-05-06 19:25 -28.56991 128.57247 36429 ft 465 kts 308°
2026-05-06 19:26 -28.52869 128.51637 36423 ft 465 kts 308°
2026-05-06 19:26 -28.48719 128.45996 36421 ft 465 kts 308°
2026-05-06 19:27 -28.44571 128.40365 36422 ft 465 kts 308°
2026-05-06 19:27 -28.40418 128.34735 36422 ft 465 kts 308°
2026-05-06 19:28 -28.36259 128.29105 36423 ft 464 kts 308°
2026-05-06 19:28 -28.32090 128.23492 36420 ft 464 kts 308°
2026-05-06 19:29 -28.27921 128.17885 36418 ft 464 kts 308°
2026-05-06 19:29 -28.23760 128.12282 36418 ft 464 kts 308°
2026-05-06 19:30 -28.19626 128.06715 36416 ft 464 kts 308°
2026-05-06 19:30 -28.15467 128.01122 36417 ft 464 kts 308°
2026-05-06 19:31 -28.11298 127.95523 36415 ft 464 kts 308°
2026-05-06 19:31 -28.05049 127.87144 36416 ft 464 kts 308°
2026-05-06 19:32 -28.00884 127.81568 36412 ft 464 kts 308°
2026-05-06 19:32 -27.96710 127.75989 36411 ft 464 kts 308°
2026-05-06 19:33 -27.92567 127.70458 36410 ft 463 kts 308°
2026-05-06 19:33 -27.88397 127.64898 36414 ft 463 kts 308°
2026-05-06 19:34 -27.84219 127.59336 36409 ft 463 kts 308°
2026-05-06 19:34 -27.80041 127.53789 36408 ft 463 kts 308°
2026-05-06 19:35 -27.75852 127.48254 36406 ft 463 kts 308°
2026-05-06 19:35 -27.71702 127.42761 36406 ft 463 kts 308°
2026-05-06 19:36 -27.67522 127.37226 36408 ft 463 kts 308°
2026-05-06 19:36 -27.63350 127.31707 36407 ft 463 kts 308°
2026-05-06 19:37 -27.59171 127.26184 36406 ft 462 kts 308°
2026-05-06 19:37 -27.55000 127.20681 36403 ft 462 kts 308°
2026-05-06 19:38 -27.50826 127.15181 36403 ft 461 kts 308°
2026-05-06 19:38 -27.46657 127.09694 36404 ft 461 kts 308°
2026-05-06 19:39 -27.42478 127.04200 36402 ft 461 kts 308°
2026-05-06 19:39 -27.38306 126.98723 36401 ft 461 kts 308°
2026-05-06 19:40 -27.34164 126.93293 36396 ft 460 kts 308°
2026-05-06 19:40 -27.29987 126.87839 36394 ft 460 kts 308°
2026-05-06 19:41 -27.25803 126.82395 36394 ft 460 kts 308°
2026-05-06 19:41 -27.21617 126.76941 36391 ft 460 kts 308°
2026-05-06 19:42 -27.17446 126.71508 36392 ft 459 kts 308°
2026-05-06 19:42 -27.13277 126.66082 36392 ft 459 kts 308°
2026-05-06 19:43 -27.09135 126.60697 36388 ft 458 kts 308°
2026-05-06 19:43 -27.04960 126.55277 36390 ft 458 kts 308°
2026-05-06 19:44 -27.00780 126.49856 36384 ft 458 kts 308°
2026-05-06 19:44 -26.96635 126.44489 36379 ft 458 kts 308°
2026-05-06 19:45 -26.92465 126.39095 36381 ft 457 kts 308°
2026-05-06 19:45 -26.88286 126.33697 36380 ft 457 kts 308°
2026-05-06 19:46 -26.84116 126.28317 36376 ft 457 kts 308°
2026-05-06 19:46 -26.79943 126.22939 36379 ft 457 kts 308°
2026-05-06 19:47 -26.75792 126.17607 36376 ft 457 kts 308°
2026-05-06 19:47 -26.71610 126.12257 36376 ft 457 kts 308°
2026-05-06 19:48 -26.67430 126.06900 36372 ft 456 kts 308°
2026-05-06 19:48 -26.63254 126.01546 36367 ft 456 kts 308°
2026-05-06 19:49 -26.59085 125.96206 36369 ft 456 kts 308°
2026-05-06 19:49 -26.54938 125.90901 36371 ft 455 kts 308°
2026-05-06 19:50 -26.50769 125.85574 36372 ft 455 kts 308°
2026-05-06 19:50 -26.46603 125.80258 36366 ft 455 kts 308°
2026-05-06 19:51 -26.42428 125.74935 36364 ft 455 kts 308°
2026-05-06 19:51 -26.38258 125.69626 36361 ft 455 kts 308°
2026-05-06 19:52 -26.34081 125.64316 36365 ft 455 kts 308°
2026-05-06 19:52 -26.29935 125.59050 36358 ft 455 kts 308°
2026-05-06 19:53 -26.25760 125.53753 36357 ft 455 kts 308°
2026-05-06 19:53 -26.21581 125.48464 36356 ft 454 kts 308°
2026-05-06 19:54 -26.17398 125.43196 36355 ft 454 kts 308°
2026-05-06 19:54 -26.13215 125.37919 36351 ft 454 kts 308°
2026-05-06 19:55 -26.09040 125.32651 36352 ft 454 kts 308°
2026-05-06 19:55 -26.04860 125.27378 36348 ft 454 kts 308°
2026-05-06 19:56 -26.00680 125.22113 36346 ft 454 kts 308°
2026-05-06 19:56 -25.96501 125.16856 36345 ft 453 kts 308°
2026-05-06 19:57 -25.92347 125.11636 36342 ft 453 kts 308°
2026-05-06 19:57 -25.88174 125.06397 36343 ft 453 kts 308°
2026-05-06 19:58 -25.83994 125.01157 36341 ft 453 kts 308°
2026-05-06 19:58 -25.79819 124.95928 36338 ft 452 kts 308°
2026-05-06 19:59 -25.75642 124.90704 36336 ft 452 kts 308°
2026-05-06 19:59 -25.71466 124.85487 36336 ft 452 kts 308°
2026-05-06 20:00 -25.67284 124.80269 36338 ft 452 kts 308°
2026-05-06 20:00 -25.63129 124.75113 36323 ft 452 kts 308°
2026-05-06 20:01 -25.58945 124.69918 36332 ft 451 kts 308°
2026-05-06 20:01 -25.54768 124.64726 36335 ft 451 kts 308°
2026-05-06 20:02 -25.50587 124.59533 36319 ft 451 kts 308°
2026-05-06 20:02 -25.46415 124.54355 36323 ft 451 kts 308°
2026-05-06 20:03 -25.42240 124.49181 36316 ft 451 kts 308°
2026-05-06 20:03 -25.38059 124.44005 36315 ft 450 kts 308°
2026-05-06 20:04 -25.33879 124.38835 36317 ft 450 kts 308°
2026-05-06 20:04 -25.29729 124.33710 36312 ft 450 kts 308°
2026-05-06 20:05 -25.25549 124.28552 36313 ft 450 kts 308°
2026-05-06 20:05 -25.21366 124.23396 36309 ft 450 kts 308°
2026-05-06 20:06 -25.17191 124.18257 36299 ft 450 kts 308°
2026-05-06 20:06 -25.13010 124.13115 36303 ft 450 kts 308°
2026-05-06 20:07 -25.08824 124.07990 36297 ft 449 kts 308°
2026-05-06 20:07 -25.04632 124.02865 36299 ft 449 kts 308°
2026-05-06 20:08 -25.00475 123.97775 36297 ft 449 kts 307°
2026-05-06 20:08 -24.96288 123.92650 36296 ft 449 kts 307°
2026-05-06 20:09 -24.92105 123.87534 36294 ft 449 kts 307°
2026-05-06 20:09 -24.87919 123.82420 36289 ft 449 kts 307°
2026-05-06 20:10 -24.83734 123.77313 36291 ft 449 kts 307°
2026-05-06 20:10 -24.80254 123.73070 36290 ft 449 kts 307°
2026-05-06 20:11 -24.76062 123.67967 36288 ft 449 kts 307°
2026-05-06 20:11 -24.71189 123.62039 36285 ft 449 kts 307°
2026-05-06 20:12 -24.67683 123.57779 36279 ft 449 kts 307°
2026-05-06 20:12 -24.63484 123.52682 36276 ft 449 kts 307°
2026-05-06 20:13 -24.59320 123.47633 36276 ft 448 kts 307°
2026-05-06 20:13 -24.55124 123.42555 36271 ft 448 kts 307°
2026-05-06 20:14 -24.50922 123.37494 36271 ft 448 kts 307°
2026-05-06 20:14 -24.46723 123.32429 36266 ft 448 kts 307°
2026-05-06 20:15 -24.42528 123.27367 36270 ft 448 kts 307°
2026-05-06 20:15 -24.38331 123.22309 36276 ft 448 kts 307°
2026-05-06 20:16 -24.34129 123.17251 36250 ft 448 kts 307°
2026-05-06 20:16 -24.29937 123.12209 36259 ft 447 kts 307°
2026-05-06 20:17 -24.25767 123.07195 36261 ft 447 kts 307°
2026-05-06 20:17 -24.21562 123.02146 36248 ft 447 kts 307°
2026-05-06 20:18 -24.17366 122.97112 36253 ft 447 kts 307°
2026-05-06 20:18 -24.13166 122.92079 36250 ft 447 kts 307°
2026-05-06 20:19 -24.08963 122.87048 36246 ft 447 kts 307°
2026-05-06 20:19 -24.04763 122.82025 36247 ft 447 kts 307°
2026-05-06 20:20 -24.00585 122.77035 36245 ft 447 kts 307°
2026-05-06 20:20 -23.96384 122.72021 36242 ft 447 kts 307°
2026-05-06 20:21 -23.92174 122.67003 36241 ft 447 kts 307°
2026-05-06 20:21 -23.87971 122.61998 36240 ft 447 kts 307°
2026-05-06 20:22 -23.83761 122.56993 36235 ft 447 kts 307°
2026-05-06 20:22 -23.79543 122.52002 36235 ft 447 kts 307°
2026-05-06 20:23 -23.75328 122.47010 36232 ft 447 kts 306°
2026-05-06 20:23 -23.71147 122.42054 36231 ft 446 kts 306°
2026-05-06 20:24 -23.66941 122.37070 36230 ft 446 kts 306°
2026-05-06 20:24 -23.62734 122.32091 36230 ft 446 kts 306°
2026-05-06 20:25 -23.58525 122.27115 36222 ft 446 kts 306°
2026-05-06 20:25 -23.54315 122.22142 36219 ft 446 kts 306°
2026-05-06 20:26 -23.50125 122.17199 36219 ft 446 kts 306°
2026-05-06 20:26 -23.45914 122.12235 36216 ft 446 kts 306°
2026-05-06 20:27 -23.41702 122.07276 36217 ft 446 kts 306°
2026-05-06 20:27 -23.37489 122.02320 36214 ft 445 kts 306°
2026-05-06 20:28 -23.33280 121.97376 36211 ft 445 kts 306°
2026-05-06 20:28 -23.29067 121.92429 36214 ft 445 kts 306°
2026-05-06 20:29 -23.24840 121.87488 36211 ft 445 kts 306°
2026-05-06 20:29 -23.20652 121.82597 36209 ft 445 kts 306°
2026-05-06 20:30 -23.14340 121.75217 36207 ft 444 kts 306°
2026-05-06 20:31 -23.10126 121.70292 36208 ft 444 kts 306°
2026-05-06 20:31 -23.05922 121.65383 36201 ft 444 kts 306°
2026-05-06 20:32 -23.01777 121.60549 36198 ft 444 kts 306°
2026-05-06 20:32 -22.97494 121.55560 36207 ft 443 kts 306°
2026-05-06 20:33 -22.93293 121.50669 36197 ft 443 kts 305°
2026-05-06 20:33 -22.89128 121.45816 36192 ft 442 kts 305°
2026-05-06 20:34 -22.84945 121.40938 36189 ft 442 kts 305°
2026-05-06 20:34 -22.80761 121.36058 36188 ft 441 kts 305°
2026-05-06 20:35 -22.76553 121.31154 36188 ft 441 kts 305°
2026-05-06 20:35 -22.72399 121.26319 36180 ft 441 kts 305°
2026-05-06 20:36 -22.68216 121.21455 36177 ft 441 kts 305°
2026-05-06 20:36 -22.64036 121.16599 36182 ft 440 kts 305°
2026-05-06 20:37 -22.59852 121.11744 36176 ft 440 kts 304°
2026-05-06 20:37 -22.55702 121.06932 36179 ft 440 kts 304°
2026-05-06 20:38 -22.51521 121.02088 36170 ft 440 kts 304°
2026-05-06 20:38 -22.47339 120.97248 36169 ft 440 kts 304°
2026-05-06 20:39 -22.43161 120.92417 36168 ft 439 kts 304°
2026-05-06 20:39 -22.38979 120.87587 36165 ft 439 kts 304°
2026-05-06 20:40 -22.34797 120.82775 36159 ft 439 kts 304°
2026-05-06 20:40 -22.30613 120.77966 36159 ft 439 kts 304°
2026-05-06 20:41 -22.26449 120.73175 36158 ft 439 kts 304°
2026-05-06 20:41 -22.22266 120.68362 36155 ft 439 kts 304°
2026-05-06 20:42 -22.18086 120.63557 36154 ft 439 kts 304°
2026-05-06 20:42 -22.13902 120.58750 36151 ft 439 kts 304°
2026-05-06 20:43 -22.09714 120.53945 36145 ft 439 kts 304°
2026-05-06 20:43 -22.05524 120.49141 36139 ft 440 kts 304°
2026-05-06 20:44 -22.01324 120.44331 36138 ft 440 kts 304°
2026-05-06 20:44 -21.97151 120.39555 36140 ft 440 kts 304°
2026-05-06 20:45 -21.92952 120.34755 36135 ft 440 kts 304°
2026-05-06 20:45 -21.88749 120.29954 36131 ft 441 kts 304°
2026-05-06 20:46 -21.84540 120.25151 36128 ft 441 kts 304°
2026-05-06 20:46 -21.80317 120.20338 36123 ft 442 kts 304°
2026-05-06 20:47 -21.76086 120.15537 36116 ft 442 kts 304°
2026-05-06 20:47 -21.71854 120.10731 36113 ft 442 kts 304°
2026-05-06 20:48 -21.67647 120.05952 36114 ft 443 kts 304°
2026-05-06 20:48 -21.63377 120.01099 36490 ft 444 kts 304°
2026-05-06 20:48 -21.61278 119.98718 36767 ft 444 kts 304°
2026-05-06 20:49 -21.59151 119.96305 37075 ft 444 kts 304°
2026-05-06 20:49 -21.57027 119.93898 37350 ft 444 kts 304°
2026-05-06 20:49 -21.54901 119.91488 37627 ft 444 kts 304°
2026-05-06 20:49 -21.52775 119.89080 37899 ft 443 kts 304°
2026-05-06 20:50 -21.50652 119.86675 38059 ft 444 kts 304°
2026-05-06 20:50 -21.46405 119.81869 38096 ft 443 kts 304°
2026-05-06 20:51 -21.42157 119.77065 38093 ft 443 kts 304°
2026-05-06 20:51 -21.37930 119.72289 38086 ft 444 kts 304°
2026-05-06 20:52 -21.33674 119.67486 38087 ft 444 kts 304°
2026-05-06 20:52 -21.29415 119.62683 38082 ft 444 kts 304°
2026-05-06 20:53 -21.25153 119.57883 38077 ft 444 kts 304°
2026-05-06 20:53 -21.20886 119.53089 38069 ft 444 kts 304°
2026-05-06 20:54 -21.16612 119.48298 38069 ft 444 kts 304°
2026-05-06 20:54 -21.12340 119.43504 38070 ft 445 kts 304°
2026-05-06 20:55 -21.08094 119.38739 38063 ft 444 kts 304°
2026-05-06 20:55 -21.03825 119.33951 38059 ft 444 kts 304°
2026-05-06 20:56 -20.99554 119.29165 38059 ft 444 kts 304°
2026-05-06 20:56 -20.95278 119.24378 38057 ft 444 kts 304°
2026-05-06 20:57 -20.91010 119.19604 38048 ft 444 kts 303°
2026-05-06 20:57 -20.87457 119.15632 38045 ft 444 kts 303°
2026-05-06 20:58 -20.82481 119.10076 38045 ft 444 kts 304°
2026-05-06 20:58 -20.78892 119.06071 38039 ft 444 kts 303°
2026-05-06 20:59 -20.74644 119.01336 38039 ft 444 kts 303°
2026-05-06 20:59 -20.70359 118.96563 38039 ft 444 kts 303°
2026-05-06 21:00 -20.66079 118.91801 38035 ft 444 kts 303°
2026-05-06 21:00 -20.61789 118.87045 38029 ft 445 kts 303°
2026-05-06 21:01 -20.57498 118.82290 38024 ft 444 kts 303°
2026-05-06 21:01 -20.53198 118.77599 38031 ft 447 kts 306°
2026-05-06 21:02 -20.48533 118.73150 38016 ft 452 kts 308°
2026-05-06 21:02 -20.43747 118.68796 38019 ft 452 kts 309°
2026-05-06 21:03 -20.38974 118.64440 38015 ft 451 kts 308°
2026-05-06 21:03 -20.34214 118.60072 38016 ft 451 kts 308°
2026-05-06 21:04 -20.29464 118.55705 38017 ft 451 kts 308°
2026-05-06 21:04 -20.24742 118.51368 38015 ft 450 kts 308°
2026-05-06 21:05 -20.19992 118.47009 38016 ft 450 kts 308°
2026-05-06 21:05 -20.15241 118.42653 38010 ft 450 kts 308°
2026-05-06 21:06 -20.10493 118.38304 38004 ft 450 kts 308°
2026-05-06 21:06 -20.05746 118.33959 37989 ft 450 kts 308°
2026-05-06 21:07 -20.01035 118.29652 37997 ft 449 kts 308°
2026-05-06 21:07 -19.96297 118.25322 37995 ft 449 kts 308°
2026-05-06 21:08 -19.91554 118.20992 37982 ft 449 kts 308°
2026-05-06 21:08 -19.86801 118.16668 37993 ft 448 kts 308°
2026-05-06 21:09 -19.82065 118.12361 37986 ft 448 kts 307°
2026-05-06 21:09 -19.77324 118.08046 37981 ft 448 kts 307°
2026-05-06 21:10 -19.72624 118.03769 37980 ft 448 kts 307°
2026-05-06 21:10 -19.67891 117.99465 37976 ft 448 kts 307°
2026-05-06 21:11 -19.63157 117.95163 37975 ft 448 kts 307°
2026-05-06 21:11 -19.58424 117.90866 37968 ft 447 kts 307°
2026-05-06 21:12 -19.53720 117.86601 37966 ft 447 kts 307°
2026-05-06 21:12 -19.48993 117.82316 37966 ft 447 kts 308°
2026-05-06 21:13 -19.44256 117.78026 37962 ft 447 kts 308°
2026-05-06 21:13 -19.39523 117.73743 37966 ft 447 kts 308°
2026-05-06 21:14 -19.34790 117.69464 37963 ft 447 kts 308°
2026-05-06 21:14 -19.30050 117.65182 37962 ft 447 kts 308°
2026-05-06 21:15 -19.25312 117.60910 37959 ft 447 kts 308°
2026-05-06 21:15 -19.20566 117.56641 37967 ft 447 kts 308°
2026-05-06 21:16 -19.15826 117.52374 37963 ft 447 kts 308°
2026-05-06 21:16 -19.11117 117.48133 37964 ft 448 kts 308°
2026-05-06 21:17 -19.06366 117.43857 37959 ft 448 kts 308°
2026-05-06 21:17 -19.01622 117.39592 37960 ft 448 kts 308°
2026-05-06 21:18 -18.96875 117.35326 37966 ft 448 kts 309°
2026-05-06 21:18 -18.92123 117.31060 37963 ft 448 kts 309°
2026-05-06 21:19 -18.87367 117.26794 37962 ft 448 kts 309°
2026-05-06 21:19 -18.82632 117.22549 37964 ft 449 kts 309°
2026-05-06 21:20 -18.77864 117.18278 37966 ft 449 kts 309°
2026-05-06 21:20 -18.73088 117.14003 37955 ft 450 kts 309°
2026-05-06 21:21 -18.68302 117.09723 37974 ft 450 kts 309°
2026-05-06 21:21 -18.63548 117.05476 37962 ft 451 kts 309°
2026-05-06 21:22 -18.58755 117.01208 37961 ft 451 kts 309°
2026-05-06 21:22 -18.53949 116.96928 37965 ft 452 kts 309°
2026-05-06 21:23 -18.49141 116.92643 37959 ft 452 kts 310°
2026-05-06 21:23 -18.44333 116.88359 37967 ft 453 kts 310°
2026-05-06 21:24 -18.39514 116.84069 37968 ft 453 kts 310°
2026-05-06 21:24 -18.34698 116.79785 37971 ft 454 kts 310°
2026-05-06 21:25 -18.29901 116.75521 37969 ft 454 kts 310°
2026-05-06 21:25 -18.25066 116.71227 37968 ft 455 kts 310°
2026-05-06 21:26 -18.20221 116.66927 37969 ft 455 kts 310°
2026-05-06 21:26 -18.15375 116.62629 37968 ft 456 kts 310°
2026-05-06 21:27 -18.10513 116.58332 37968 ft 457 kts 311°
2026-05-06 21:27 -18.05640 116.54046 37967 ft 457 kts 311°
2026-05-06 21:28 -18.00760 116.49755 37967 ft 458 kts 311°
2026-05-06 21:28 -17.95872 116.45457 37970 ft 458 kts 311°
2026-05-06 21:29 -17.91009 116.41182 37969 ft 459 kts 311°
2026-05-06 21:29 -17.86107 116.36875 37984 ft 460 kts 311°
2026-05-06 21:30 -17.81188 116.32558 37974 ft 460 kts 311°
2026-05-06 21:30 -17.76270 116.28245 37967 ft 461 kts 311°
2026-05-06 21:31 -17.71343 116.23928 37969 ft 462 kts 311°
2026-05-06 21:31 -17.66402 116.19601 37970 ft 463 kts 311°
2026-05-06 21:32 -17.61451 116.15269 37967 ft 463 kts 311°
2026-05-06 21:32 -17.54025 116.08777 37970 ft 464 kts 312°
2026-05-06 21:33 -17.49091 116.04467 37973 ft 464 kts 312°
2026-05-06 21:33 -17.44122 116.00141 37971 ft 465 kts 312°
2026-05-06 21:34 -17.39153 115.95815 37969 ft 465 kts 312°
2026-05-06 21:34 -17.34174 115.91477 37971 ft 465 kts 312°
2026-05-06 21:35 -17.29198 115.87143 37968 ft 466 kts 312°
2026-05-06 21:35 -17.24210 115.82803 37971 ft 466 kts 312°
2026-05-06 21:36 -17.19250 115.78489 37975 ft 467 kts 312°
2026-05-06 21:36 -17.14250 115.74144 37973 ft 467 kts 313°
2026-05-06 21:37 -17.09242 115.69795 37970 ft 468 kts 313°
2026-05-06 21:37 -17.04231 115.65448 37969 ft 468 kts 313°
2026-05-06 21:38 -16.99242 115.61122 37970 ft 468 kts 313°
2026-05-06 21:38 -16.94228 115.56777 37970 ft 469 kts 313°
2026-05-06 21:39 -16.89204 115.52427 37967 ft 469 kts 313°
2026-05-06 21:39 -16.84177 115.48079 37969 ft 469 kts 313°
2026-05-06 21:40 -16.79146 115.43740 37973 ft 469 kts 313°
2026-05-06 21:40 -16.74106 115.39392 37970 ft 470 kts 313°
2026-05-06 21:41 -16.69068 115.35043 37969 ft 470 kts 313°
2026-05-06 21:41 -16.64028 115.30696 37969 ft 470 kts 313°
2026-05-06 21:42 -16.59014 115.26372 37972 ft 470 kts 313°
2026-05-06 21:42 -16.53960 115.22018 37968 ft 470 kts 313°
2026-05-06 21:43 -16.48906 115.17667 37970 ft 471 kts 313°
2026-05-06 21:43 -16.43860 115.13327 37965 ft 471 kts 313°
2026-05-06 21:44 -16.38794 115.08982 37971 ft 471 kts 314°
2026-05-06 21:44 -16.34588 115.05377 37970 ft 471 kts 314°
2026-05-06 21:45 -16.28700 115.00329 37970 ft 471 kts 314°
2026-05-06 21:45 -16.23635 114.95989 37969 ft 471 kts 314°
2026-05-06 21:46 -16.19428 114.92386 37967 ft 471 kts 314°
2026-05-06 21:46 -16.14367 114.88056 37966 ft 471 kts 314°
2026-05-06 21:47 -16.09298 114.83720 37963 ft 471 kts 314°
2026-05-06 21:47 -16.04234 114.79393 37968 ft 471 kts 314°
2026-05-06 21:48 -15.99171 114.75069 37966 ft 471 kts 314°
2026-05-06 21:48 -15.94103 114.70744 37964 ft 471 kts 314°
2026-05-06 21:49 -15.89043 114.66428 37962 ft 471 kts 314°
2026-05-06 21:49 -15.83983 114.62116 37963 ft 470 kts 314°
2026-05-06 21:50 -15.78949 114.57831 37962 ft 470 kts 315°
2026-05-06 21:50 -15.73881 114.53527 37962 ft 470 kts 315°
2026-05-06 21:51 -15.68814 114.49222 37963 ft 470 kts 315°
2026-05-06 21:51 -15.63752 114.44920 37966 ft 470 kts 315°
2026-05-06 21:52 -15.58690 114.40620 37964 ft 470 kts 315°
2026-05-06 21:52 -15.53631 114.36326 37962 ft 470 kts 315°
2026-05-06 21:53 -15.48570 114.32032 37961 ft 470 kts 315°
2026-05-06 21:53 -15.43541 114.27769 37957 ft 470 kts 315°
2026-05-06 21:54 -15.38476 114.23477 37964 ft 470 kts 315°
2026-05-06 21:54 -15.33410 114.19188 37953 ft 470 kts 315°
2026-05-06 21:55 -15.28345 114.14903 37967 ft 470 kts 315°
2026-05-06 21:55 -15.23269 114.10610 37956 ft 470 kts 315°
2026-05-06 21:56 -15.18231 114.06353 37961 ft 470 kts 315°
2026-05-06 21:56 -15.13161 114.02075 37965 ft 470 kts 315°
2026-05-06 21:57 -15.08087 113.97802 37966 ft 470 kts 315°
2026-05-06 21:57 -15.03029 113.93540 37961 ft 470 kts 315°
2026-05-06 21:58 -14.97955 113.89264 37954 ft 470 kts 315°
2026-05-06 21:58 -14.92881 113.84990 37953 ft 470 kts 315°
2026-05-06 21:59 -14.87813 113.80723 37954 ft 470 kts 315°
2026-05-06 21:59 -14.82741 113.76456 37954 ft 470 kts 315°
2026-05-06 22:00 -14.77665 113.72189 37956 ft 470 kts 315°
2026-05-06 22:00 -14.72620 113.67950 37953 ft 470 kts 315°
2026-05-06 22:01 -14.67543 113.63687 37943 ft 470 kts 315°
2026-05-06 22:01 -14.62469 113.59429 37950 ft 470 kts 315°
2026-05-06 22:02 -14.57383 113.55163 37944 ft 470 kts 315°
2026-05-06 22:02 -14.52294 113.50898 37948 ft 470 kts 315°
2026-05-06 22:03 -14.47208 113.46644 37951 ft 470 kts 316°
2026-05-06 22:03 -14.42158 113.42424 37952 ft 471 kts 316°
2026-05-06 22:04 -14.37070 113.38169 37949 ft 471 kts 316°
2026-05-06 22:04 -14.31977 113.33911 37949 ft 471 kts 316°
2026-05-06 22:05 -14.26870 113.29643 37950 ft 472 kts 316°
2026-05-06 22:05 -14.21769 113.25383 37950 ft 472 kts 316°
2026-05-06 22:06 -14.16696 113.21149 37951 ft 472 kts 316°
2026-05-06 22:06 -14.11586 113.16887 37947 ft 472 kts 316°
2026-05-06 22:07 -14.06476 113.12628 37953 ft 472 kts 316°
2026-05-06 22:07 -14.01355 113.08362 37948 ft 472 kts 316°
2026-05-06 22:08 -13.96243 113.04106 37942 ft 473 kts 316°
2026-05-06 22:08 -13.91128 112.99850 37941 ft 473 kts 316°
2026-05-06 22:09 -13.86040 112.95619 37948 ft 473 kts 316°
2026-05-06 22:09 -13.80908 112.91361 37946 ft 473 kts 316°
2026-05-06 22:10 -13.75784 112.87111 37942 ft 473 kts 316°
2026-05-06 22:10 -13.70663 112.82861 37941 ft 473 kts 316°
2026-05-06 22:11 -13.65549 112.78618 37940 ft 472 kts 316°
2026-05-06 22:11 -13.60430 112.74373 37942 ft 472 kts 316°
2026-05-06 22:12 -13.55351 112.70164 37941 ft 472 kts 316°
2026-05-06 22:12 -13.50238 112.65929 37934 ft 472 kts 316°
2026-05-06 22:13 -13.45130 112.61701 37938 ft 472 kts 316°
2026-05-06 22:13 -13.40013 112.57468 37939 ft 472 kts 316°
2026-05-06 22:14 -13.34893 112.53234 37939 ft 472 kts 316°
2026-05-06 22:14 -13.29777 112.49006 37940 ft 472 kts 316°
2026-05-06 22:15 -13.24693 112.44808 37937 ft 472 kts 316°
2026-05-06 22:15 -13.19569 112.40579 37935 ft 472 kts 317°
2026-05-06 22:16 -13.14445 112.36360 37938 ft 472 kts 317°
2026-05-06 22:16 -13.09317 112.32136 37939 ft 473 kts 317°
2026-05-06 22:17 -13.04187 112.27910 37937 ft 472 kts 317°
2026-05-06 22:17 -12.99082 112.23705 37933 ft 472 kts 317°
2026-05-06 22:18 -12.93950 112.19480 37935 ft 472 kts 317°
2026-05-06 22:18 -12.88816 112.15256 37933 ft 473 kts 317°
2026-05-06 22:19 -12.83679 112.11033 37932 ft 473 kts 317°
2026-05-06 22:19 -12.78579 112.06841 37928 ft 473 kts 317°
2026-05-06 22:20 -12.73445 112.02624 37930 ft 473 kts 317°
2026-05-06 22:20 -12.68310 111.98408 37927 ft 473 kts 317°
2026-05-06 22:21 -12.63177 111.94197 37927 ft 473 kts 317°
2026-05-06 22:21 -12.58046 111.89989 37926 ft 473 kts 317°
2026-05-06 22:22 -12.52909 111.85783 37927 ft 473 kts 317°
2026-05-06 22:22 -12.47772 111.81581 37929 ft 473 kts 317°
2026-05-06 22:23 -12.42667 111.77404 37926 ft 473 kts 317°
2026-05-06 22:23 -12.37534 111.73204 37927 ft 473 kts 317°
2026-05-06 22:24 -12.32392 111.68998 37928 ft 473 kts 317°
2026-05-06 22:24 -12.27250 111.64795 37924 ft 473 kts 317°
2026-05-06 22:25 -12.22111 111.60596 37926 ft 473 kts 317°
2026-05-06 22:25 -12.16963 111.56392 37923 ft 473 kts 317°
2026-05-06 22:26 -12.11858 111.52225 37925 ft 473 kts 317°
2026-05-06 22:26 -12.06717 111.48031 37922 ft 473 kts 317°
2026-05-06 22:27 -12.01572 111.43836 37923 ft 473 kts 317°
2026-05-06 22:27 -11.96423 111.39643 37923 ft 473 kts 317°
2026-05-06 22:28 -11.91306 111.35474 37923 ft 473 kts 317°
2026-05-06 22:28 -11.86126 111.31254 37919 ft 473 kts 317°
2026-05-06 22:29 -11.81008 111.27084 37920 ft 473 kts 317°
2026-05-06 22:29 -11.75856 111.22890 37919 ft 473 kts 317°
2026-05-06 22:30 -11.70725 111.18677 37915 ft 473 kts 317°
2026-05-06 22:30 -11.65631 111.14425 37920 ft 473 kts 317°
2026-05-06 22:31 -11.60504 111.10194 37918 ft 473 kts 317°
2026-05-06 22:31 -11.55370 111.05991 37912 ft 474 kts 317°
2026-05-06 22:32 -11.50227 111.01789 37913 ft 474 kts 318°
2026-05-06 22:32 -11.45082 110.97587 37911 ft 473 kts 318°
2026-05-06 22:33 -11.39966 110.93409 37908 ft 474 kts 318°
2026-05-06 22:33 -11.34817 110.89208 37926 ft 474 kts 318°
2026-05-06 22:34 -11.30535 110.85720 37925 ft 474 kts 318°
2026-05-06 22:34 -11.25379 110.81519 37907 ft 474 kts 318°
2026-05-06 22:35 -11.20231 110.77324 37904 ft 473 kts 318°
2026-05-06 22:35 -11.15091 110.73136 37920 ft 473 kts 318°
2026-05-06 22:36 -11.09939 110.68939 37921 ft 473 kts 318°
2026-05-06 22:36 -11.04796 110.64754 37901 ft 473 kts 318°
2026-05-06 22:37 -10.99652 110.60568 37903 ft 473 kts 318°
2026-05-06 22:37 -10.94530 110.56403 37917 ft 473 kts 319°
2026-05-06 22:38 -10.89392 110.52226 37911 ft 473 kts 319°
2026-05-06 22:38 -10.84251 110.48049 37889 ft 473 kts 319°
2026-05-06 22:39 -10.79106 110.43870 37914 ft 473 kts 319°
2026-05-06 22:39 -10.73953 110.39687 37914 ft 473 kts 319°
2026-05-06 22:40 -10.68799 110.35507 37895 ft 473 kts 319°
2026-05-06 22:40 -10.63647 110.31335 37909 ft 473 kts 319°
2026-05-06 22:41 -10.55956 110.25104 37911 ft 473 kts 319°
2026-05-06 22:42 -10.50797 110.20925 37903 ft 474 kts 319°
2026-05-06 22:42 -10.45645 110.16752 37902 ft 473 kts 319°
2026-05-06 22:43 -10.40484 110.12575 37887 ft 473 kts 319°
2026-05-06 22:43 -10.35333 110.08407 37898 ft 473 kts 319°
2026-05-06 22:44 -10.30184 110.04244 37901 ft 473 kts 319°
2026-05-06 22:44 -10.25029 110.00077 37900 ft 473 kts 319°
2026-05-06 22:45 -10.19905 109.95936 37899 ft 473 kts 319°
2026-05-06 22:45 -10.14748 109.91771 37894 ft 473 kts 319°
2026-05-06 22:46 -10.09597 109.87612 37899 ft 473 kts 319°
2026-05-06 22:46 -10.04447 109.83457 37896 ft 473 kts 319°
2026-05-06 22:47 -9.99293 109.79306 37893 ft 473 kts 319°
2026-05-06 22:47 -9.94144 109.75157 37892 ft 472 kts 319°
2026-05-06 22:48 -9.88993 109.71007 37897 ft 472 kts 319°
2026-05-06 22:48 -9.83848 109.66861 37890 ft 472 kts 319°
2026-05-06 22:49 -9.78703 109.62718 37891 ft 472 kts 319°
2026-05-06 22:49 -9.73550 109.58570 37893 ft 473 kts 319°
2026-05-06 22:50 -9.68400 109.54426 37889 ft 473 kts 319°
2026-05-06 22:50 -9.63276 109.50305 37891 ft 473 kts 319°
2026-05-06 22:51 -9.58111 109.46152 37893 ft 473 kts 319°
2026-05-06 22:51 -9.52946 109.42001 37891 ft 474 kts 319°
2026-05-06 22:52 -9.47774 109.37846 37894 ft 474 kts 319°
2026-05-06 22:52 -9.42606 109.33696 37890 ft 474 kts 320°
2026-05-06 22:53 -9.37431 109.29545 37887 ft 474 kts 319°
2026-05-06 22:53 -9.32257 109.25398 37890 ft 475 kts 320°
2026-05-06 22:54 -9.27077 109.21246 37893 ft 475 kts 320°
2026-05-06 22:54 -9.21899 109.17094 37891 ft 475 kts 320°
2026-05-06 22:55 -9.16746 109.12964 37889 ft 475 kts 320°
2026-05-06 22:55 -9.11560 109.08809 37887 ft 475 kts 320°
2026-05-06 22:56 -9.06374 109.04656 37893 ft 475 kts 320°
2026-05-06 22:56 -9.01196 109.00510 37889 ft 474 kts 320°
2026-05-06 22:57 -8.96022 108.96371 37889 ft 474 kts 320°
2026-05-06 22:57 -8.90890 108.92265 37888 ft 473 kts 320°
2026-05-06 22:58 -8.85727 108.88137 37884 ft 472 kts 320°
2026-05-06 22:58 -8.80568 108.84013 37884 ft 472 kts 320°
2026-05-06 22:59 -8.75440 108.79915 37885 ft 472 kts 320°
2026-05-06 22:59 -8.70288 108.75804 37885 ft 472 kts 321°
2026-05-06 23:00 -8.65316 108.71838 37887 ft 473 kts 321°
2026-05-06 23:00 -8.60131 108.67701 37889 ft 474 kts 321°
2026-05-06 23:01 -8.54954 108.63570 37884 ft 474 kts 321°
2026-05-06 23:01 -8.49761 108.59428 37886 ft 475 kts 321°
2026-05-06 23:02 -8.44568 108.55287 37886 ft 476 kts 321°
2026-05-06 23:02 -8.39396 108.51164 37883 ft 477 kts 321°
2026-05-06 23:03 -8.34190 108.47016 37886 ft 477 kts 321°
2026-05-06 23:03 -8.28976 108.42863 37885 ft 477 kts 321°
2026-05-06 23:04 -8.23769 108.38718 37883 ft 477 kts 321°
2026-05-06 23:04 -8.18556 108.34568 37891 ft 477 kts 321°
2026-05-06 23:05 -8.13259 108.30511 37888 ft 477 kts 326°
2026-05-06 23:05 -8.07295 108.27627 37894 ft 478 kts 343°
2026-05-06 23:06 -8.00733 108.26784 37894 ft 481 kts 360°
2026-05-06 23:06 -7.94051 108.27119 37900 ft 481 kts
2026-05-06 23:07 -7.87351 108.27551 37897 ft 482 kts
2026-05-06 23:07 -7.80654 108.27875 37902 ft 482 kts
2026-05-06 23:08 -7.73946 108.28147 37909 ft 482 kts
2026-05-06 23:08 -7.67235 108.28412 37915 ft 483 kts
2026-05-06 23:09 -7.60559 108.28677 37918 ft 483 kts
2026-05-06 23:09 -7.53836 108.28946 37927 ft 483 kts
2026-05-06 23:10 -7.47107 108.29215 37926 ft 483 kts
2026-05-06 23:10 -7.40393 108.29483 37930 ft 483 kts
2026-05-06 23:11 -7.33677 108.29751 37931 ft 483 kts
2026-05-06 23:11 -7.26957 108.30020 37936 ft 483 kts
2026-05-06 23:12 -7.20237 108.30288 37938 ft 483 kts
2026-05-06 23:12 -7.13555 108.30555 37932 ft 483 kts
2026-05-06 23:13 -7.06828 108.30823 37935 ft 483 kts
2026-05-06 23:13 -7.00100 108.31092 37927 ft 483 kts
2026-05-06 23:14 -6.93378 108.31360 37923 ft 484 kts
2026-05-06 23:14 -6.86651 108.31628 37911 ft 484 kts
2026-05-06 23:15 -6.79916 108.31896 37901 ft 484 kts
2026-05-06 23:15 -6.73183 108.32164 37894 ft 484 kts
2026-05-06 23:16 -6.66491 108.32431 37892 ft 484 kts
2026-05-06 23:16 -6.59760 108.32699 37879 ft 484 kts
2026-05-06 23:17 -6.53029 108.32967 37882 ft 484 kts
2026-05-06 23:17 -6.46297 108.33235 37881 ft 484 kts
2026-05-06 23:18 -6.39576 108.33472 37878 ft 483 kts 359°
2026-05-06 23:18 -6.36214 108.33307 37255 ft 485 kts 352°
2026-05-06 23:18 -6.32930 108.32632 36413 ft 479 kts 342°
2026-05-06 23:18 -6.29885 108.31464 35700 ft 472 kts 334°
2026-05-06 23:19 -6.26999 108.29826 35063 ft 465 kts 326°
2026-05-06 23:19 -6.24444 108.27862 34493 ft 461 kts 318°
2026-05-06 23:19 -6.22138 108.25637 33941 ft 458 kts 314°
2026-05-06 23:19 -6.19992 108.23344 33344 ft 455 kts 313°
2026-05-06 23:20 -6.17863 108.21008 32781 ft 451 kts 313°
2026-05-06 23:20 -6.15743 108.18697 32171 ft 448 kts 313°
2026-05-06 23:20 -6.13622 108.16420 31568 ft 444 kts 314°
2026-05-06 23:20 -6.11500 108.14181 30975 ft 441 kts 315°
2026-05-06 23:21 -6.09380 108.11970 30348 ft 438 kts 315°
2026-05-06 23:21 -6.07268 108.09783 29679 ft 434 kts 315°
2026-05-06 23:21 -6.05176 108.07622 29003 ft 430 kts 315°
2026-05-06 23:21 -6.03100 108.05479 28352 ft 426 kts 315°
2026-05-06 23:22 -6.01043 108.03355 27736 ft 422 kts 315°
2026-05-06 23:22 -5.99667 108.01929 27325 ft 420 kts 315°
2026-05-06 23:22 -5.97793 107.99700 26710 ft 417 kts 305°
2026-05-06 23:22 -5.96473 107.97156 26060 ft 416 kts 289°
2026-05-06 23:23 -5.95919 107.94325 25405 ft 413 kts 275°
2026-05-06 23:23 -5.95851 107.91444 24777 ft 410 kts 269°
2026-05-06 23:23 -5.95945 107.88595 24198 ft 406 kts 268°
2026-05-06 23:23 -5.96058 107.85771 23878 ft 404 kts 268°
2026-05-06 23:24 -5.96144 107.82950 23555 ft 402 kts 269°
2026-05-06 23:24 -5.96194 107.80335 22894 ft 399 kts 269°
2026-05-06 23:24 -5.96223 107.77559 22007 ft 394 kts 270°
2026-05-06 23:24 -5.96236 107.74861 21152 ft 389 kts 270°
2026-05-06 23:25 -5.96240 107.72162 20402 ft 384 kts 270°
2026-05-06 23:25 -5.96241 107.69471 19739 ft 385 kts 270°
2026-05-06 23:25 -5.96240 107.66803 19277 ft 378 kts 270°
2026-05-06 23:25 -5.96239 107.64225 18770 ft 363 kts 270°
2026-05-06 23:26 -5.96239 107.61733 18152 ft 355 kts 270°
2026-05-06 23:26 -5.96238 107.59275 17473 ft 349 kts 270°
2026-05-06 23:26 -5.96238 107.56818 16830 ft 351 kts 270°
2026-05-06 23:26 -5.96238 107.54390 16220 ft 345 kts 270°
2026-05-06 23:27 -5.96237 107.51997 15635 ft 346 kts 270°
2026-05-06 23:27 -5.96237 107.49579 15051 ft 346 kts 270°
2026-05-06 23:27 -5.96237 107.47193 14463 ft 336 kts 270°
2026-05-06 23:27 -5.96237 107.44837 13895 ft 334 kts 270°
2026-05-06 23:28 -5.96237 107.42508 13283 ft 334 kts 270°
2026-05-06 23:28 -5.96237 107.40176 12710 ft 331 kts 270°
2026-05-06 23:28 -5.96237 107.37892 12227 ft 325 kts 270°
2026-05-06 23:28 -5.96237 107.35648 11969 ft 319 kts 270°
2026-05-06 23:29 -5.96236 107.33464 11817 ft 306 kts 270°
2026-05-06 23:29 -5.96235 107.31357 11495 ft 298 kts 270°
2026-05-06 23:29 -5.96232 107.29286 11015 ft 298 kts 270°
2026-05-06 23:29 -5.96229 107.27200 10443 ft 295 kts 270°
2026-05-06 23:30 -5.96227 107.25306 9932 ft 291 kts 270°
2026-05-06 23:30 -5.96224 107.23283 9399 ft 295 kts 270°
2026-05-06 23:30 -5.96221 107.21234 8846 ft 288 kts 270°
2026-05-06 23:30 -5.96219 107.19239 8356 ft 285 kts 270°
2026-05-06 23:31 -5.96216 107.17261 7998 ft 282 kts 270°
2026-05-06 23:31 -5.96213 107.15306 7639 ft 279 kts 270°
2026-05-06 23:31 -5.96211 107.13362 7301 ft 277 kts 270°
2026-05-06 23:31 -5.96211 107.11460 7124 ft 266 kts 268°
2026-05-06 23:32 -5.96522 107.09675 7031 ft 253 kts 252°
2026-05-06 23:32 -5.97093 107.08007 6889 ft 251 kts 249°
2026-05-06 23:32 -5.97710 107.06373 6741 ft 249 kts 248°
2026-05-06 23:32 -5.98338 107.04742 6327 ft 256 kts 248°
2026-05-06 23:33 -5.98984 107.03071 5872 ft 255 kts 248°
2026-05-06 23:33 -5.99617 107.01433 5442 ft 248 kts 248°
2026-05-06 23:33 -6.00243 106.99815 5082 ft 250 kts 248°
2026-05-06 23:33 -6.00874 106.98185 4721 ft 246 kts 248°
2026-05-06 23:34 -6.01496 106.96579 4363 ft 243 kts 248°
2026-05-06 23:34 -6.02097 106.95025 4163 ft 231 kts 248°
2026-05-06 23:34 -6.02665 106.93566 4024 ft 219 kts 247°
2026-05-06 23:34 -6.03225 106.92173 4019 ft 217 kts 246°
2026-05-06 23:35 -6.03795 106.90770 4012 ft 217 kts 246°
2026-05-06 23:35 -6.04348 106.89397 3993 ft 206 kts 246°
2026-05-06 23:35 -6.04879 106.88072 3954 ft 204 kts 246°
2026-05-06 23:35 -6.05405 106.86753 3831 ft 204 kts 247°
2026-05-06 23:36 -6.05930 106.85433 3593 ft 203 kts 246°
2026-05-06 23:36 -6.06449 106.84124 3335 ft 201 kts 247°
2026-05-06 23:36 -6.06969 106.82810 3087 ft 201 kts 246°
2026-05-06 23:36 -6.07479 106.81517 2843 ft 198 kts 246°
2026-05-06 23:37 -6.07982 106.80245 2588 ft 192 kts 246°
2026-05-06 23:37 -6.08470 106.79008 2349 ft 190 kts 247°
2026-05-06 23:37 -6.08959 106.77772 2107 ft 189 kts 247°
2026-05-06 23:37 -6.09442 106.76548 1860 ft 186 kts 247°
2026-05-06 23:38 -6.09896 106.75393 1623 ft 171 kts 246°
2026-05-06 23:38 -6.10328 106.74300 1392 ft 166 kts 247°
2026-05-06 23:38 -6.10751 106.73229 1213 ft 163 kts 247°
2026-05-06 23:38 -6.11164 106.72184 988 ft 159 kts 248°
2026-05-06 23:39 -6.11541 106.71226 847 ft 156 kts 246°
2026-05-06 23:39 -6.11940 106.70217 634 ft 154 kts 246°
2026-05-06 23:39 -6.12332 106.69221 429 ft 153 kts 246°
2026-05-06 23:39 -6.12720 106.68237 230 ft 151 kts 246°
2026-05-06 23:40 -6.13097 106.67254 57 ft 148 kts 247°
2026-05-06 23:40 -6.13439 106.66409 48 ft 114 kts 249°
2026-05-06 23:40 -6.13639 106.65891 46 ft 56 kts 249°
2026-05-06 23:40 -6.13748 106.65594 45 ft 29 kts 255°
2026-05-06 23:41 -6.13748 106.65436 46 ft 20 kts 277°
2026-05-06 23:41 -6.13699 106.65340 46 ft 9 kts 313°
2026-05-06 23:41 -6.13685 106.65299 43 ft 5 kts 271°
2026-05-06 23:41 -6.13691 106.65268 46 ft 4 kts 253°
2026-05-06 23:42 -6.13700 106.65244 46 ft 3 kts 249°
2026-05-06 23:42 -6.13707 106.65226 46 ft 2 kts 248°
2026-05-06 23:42 -6.13723 106.65187 46 ft 9 kts 248°
2026-05-06 23:42 -6.13747 106.65128 46 ft 9 kts 247°
2026-05-06 23:43 -6.13763 106.65077 46 ft 6 kts 271°
2026-05-06 23:43 -6.13730 106.65046 46 ft 9 kts 341°
2026-05-06 23:43 -6.13678 106.65028 46 ft 8 kts 333°
2026-05-06 23:43 -6.13605 106.64994 44 ft 15 kts 335°
2026-05-06 23:44 -6.13501 106.64951 46 ft 18 kts 341°
2026-05-06 23:44 -6.13364 106.64900 46 ft 22 kts 339°
2026-05-06 23:44 -6.13226 106.64845 46 ft 21 kts 338°
2026-05-06 23:44 -6.13097 106.64794 46 ft 19 kts 338°
2026-05-06 23:45 -6.12976 106.64746 46 ft 18 kts 338°
2026-05-06 23:45 -6.12864 106.64702 46 ft 17 kts 339°
2026-05-06 23:45 -6.12759 106.64659 46 ft 16 kts 338°
2026-05-06 23:45 -6.12661 106.64620 46 ft 15 kts 339°
2026-05-06 23:46 -6.12570 106.64584 46 ft 13 kts 339°
2026-05-06 23:46 -6.12488 106.64551 46 ft 13 kts 337°
2026-05-06 23:46 -6.12382 106.64507 43 ft 19 kts 337°
2026-05-06 23:46 -6.12263 106.64460 46 ft 18 kts 339°
2026-05-06 23:47 -6.12162 106.64455 46 ft 12 kts 40°
2026-05-06 23:47 -6.12129 106.64526 44 ft 11 kts 69°
2026-05-06 23:47 -6.12104 106.64594 45 ft 10 kts 68°
2026-05-06 23:47 -6.12080 106.64654 46 ft 9 kts 69°
2026-05-06 23:48 -6.12059 106.64709 46 ft 8 kts 68°
2026-05-06 23:48 -6.12040 106.64757 46 ft 7 kts 68°
2026-05-06 23:48 -6.12023 106.64801 46 ft 6 kts 68°
2026-05-06 23:48 -6.12008 106.64839 46 ft 5 kts 68°
2026-05-06 23:49 -6.11994 106.64871 44 ft 5 kts 65°
2026-05-06 23:49 -6.11971 106.64922 43 ft 11 kts 66°
2026-05-06 23:49 -6.11937 106.65000 46 ft 14 kts 69°
2026-05-06 23:49 -6.11895 106.65110 46 ft 19 kts 68°
2026-05-06 23:50 -6.11848 106.65227 46 ft 18 kts 68°
2026-05-06 23:50 -6.11755 106.65464 44 ft 18 kts 69°
2026-05-06 23:50 -6.11711 106.65576 45 ft 17 kts 67°
2026-05-06 23:51 -6.11667 106.65681 44 ft 15 kts 69°
2026-05-06 23:51 -6.11629 106.65778 45 ft 14 kts 68°
2026-05-06 23:51 -6.11593 106.65868 44 ft 13 kts 68°
2026-05-06 23:51 -6.11587 106.65915 45 ft 2 kts 109°
2026-05-06 23:52 -6.11606 106.65936 44 ft 6 kts 139°
2026-05-06 23:52 -6.11654 106.65959 45 ft 9 kts 157°
2026-05-06 23:52 -6.11722 106.65986 44 ft 11 kts 159°
2026-05-06 23:52 -6.11785 106.66019 45 ft 9 kts 133°
2026-05-06 23:53 -6.11792 106.66065 45 ft 6 kts 79°
2026-05-06 23:53 -6.11785 106.66093 44 ft 3 kts 75°
2026-05-06 23:53 -6.11786 106.66112 45 ft 3 kts 101°
2026-05-06 23:53 -6.11795 106.66122 45 ft 0 kts 136°
2026-05-06 23:54 -6.11802 106.66124 45 ft 3 kts 157°
2026-05-06 23:54 -6.11830 106.66134 42 ft 4 kts 159°
2026-05-06 23:54 -6.11853 106.66143 45 ft 3 kts 159°
2026-05-06 23:54 -6.11869 106.66150 45 ft 2 kts 158°
2026-05-06 23:55 -6.11874 106.66152 45 ft 0 kts 158°